OBJECT_NAME,OBJECT_ID,EPOCH,MEAN_MOTION,ECCENTRICITY,INCLINATION,RA_OF_ASC_NODE,ARG_OF_PERICENTER,MEAN_ANOMALY,EPHEMERIS_TYPE,CLASSIFICATION_TYPE,NORAD_CAT_ID,ELEMENT_SET_NO,REV_AT_EPOCH,BSTAR,MEAN_MOTION_DOT,MEAN_MOTION_DDOT OSCAR 7 (AO-7),1974-089B,2026-06-18T12:29:07.266336,12.53698129,.0012587,101.9900,182.7808,127.6096,27.1345,0,U,7530,999,36068,-.20353715E-4,-.5E-6,0 PHASE 3B (AO-10),1983-058B,2026-06-17T08:52:06.564288,2.05868747,.60107772,25.9123,219.5345,115.7182,316.6307,0,U,14129,999,29549,0,.19E-5,0 UOSAT 2 (UO-11),1984-021B,2026-06-18T08:41:53.062944,14.90785769,.00077655,97.8058,134.9238,168.4730,191.6667,0,U,14781,999,25730,.10168551E-3,.944E-5,0 LUSAT (LO-19),1990-005G,2026-06-18T12:10:53.950368,14.34123547,.00111941,98.8849,191.3496,197.0729,163.0080,0,U,20442,999,90258,.44239714E-4,.77E-6,0 EYESAT A (AO-27),1993-061C,2026-06-18T11:14:19.089600,14.30942580,.00095446,98.6880,236.8814,96.4763,263.7506,0,U,22825,999,70718,.45261763E-4,.74E-6,0 ITAMSAT (IO-26),1993-061D,2026-06-18T10:44:07.324800,14.31369493,.00100602,98.6829,236.7780,81.6233,278.6090,0,U,22826,999,70749,.45886252E-4,.77E-6,0 RADIO ROSTO (RS15),1994-085A,2026-06-18T14:58:07.296384,11.27583454,.015598,64.8186,300.8928,3.6110,356.5903,0,U,23439,999,29606,.42691059E-4,-.41E-6,0 JAS-2 (FO-29),1996-046B,2026-06-18T01:12:39.948768,13.53274469,.0350914,98.5238,17.8043,94.1986,269.9331,0,U,24278,999,47328,.30027018E-4,-.3E-7,0 TECHSAT 1B (GO-32),1998-043D,2026-06-18T11:15:43.179264,14.24428629,.00011304,99.0067,162.2602,160.0022,200.1201,0,U,25397,999,45151,.36200571E-4,.37E-6,0 ISS (ZARYA),1998-067A,2026-06-18T11:30:33.586560,15.49298053,.00047553,51.6334,293.6965,201.5062,158.5728,0,U,25544,999,57195,.16793568E-3,.891E-4,0 PCSAT (NO-44),2001-043C,2026-06-18T11:40:22.969344,14.31956505,.00060799,67.0504,240.9116,264.6354,95.4054,0,U,26931,999,29063,.59455154E-4,.76E-6,0 SAUDISAT 1C (SO-50),2002-058C,2026-06-18T08:51:28.341792,14.83049237,.00751936,64.5511,125.3282,262.2562,97.0002,0,U,27607,999,26463,.11045866E-3,.788E-5,0 CUTE-1 (CO-55),2003-031E,2026-06-18T00:29:44.023488,14.24336174,.00096097,98.6736,177.5689,175.5784,184.5482,0,U,27844,999,19179,.11471233E-3,.221E-5,0 CUBESAT XI-IV (CO-57),2003-031J,2026-06-17T22:32:30.413760,14.23621196,.0009073,98.6765,177.2007,194.7196,165.3719,0,U,27848,999,19148,.10079477E-3,.186E-5,0 MOZHAETS 4 (RS22),2003-042A,2026-06-18T15:26:26.577888,14.73470261,.00099187,98.3464,354.0428,264.5373,184.1435,0,U,27939,999,21576,.15406629E-3,.947E-5,0 CUBESAT XI-V,2005-043F,2026-06-17T22:42:29.709216,14.72633352,.00137043,98.2987,324.5839,198.2082,161.8635,0,U,28895,999,10186,.18286399E-3,.1113E-4,0 CUTE-1.7+APD II (CO-65),2008-021C,2026-06-18T13:47:24.204480,15.09461529,.00096106,97.8275,151.0219,34.4891,325.6959,0,U,32785,999,98540,.27313031E-3,.431E-4,0 SEEDS II (CO-66),2008-021J,2026-06-18T10:35:22.533792,15.32786684,.00008895,97.7517,167.3987,357.5135,2.6101,0,U,32791,999,98748,.44622341E-3,.14056E-3,0 YUBILEINY (RS30),2008-025A,2026-06-18T13:07:46.592256,12.43179650,.00188111,82.5036,354.5939,310.8246,49.1202,0,U,32953,999,81986,.26113268E-3,.46E-6,0 KKS-1 (KISEKI),2009-002H,2026-06-18T12:55:22.463616,14.83127017,.00064699,98.1189,92.0021,290.6566,69.3953,0,U,33499,999,93639,.13213577E-3,.1021E-4,0 SWISSCUBE,2009-051B,2026-06-18T06:19:12.531072,14.62483386,.00060307,98.4034,77.1704,199.2833,160.8141,0,U,35932,999,88931,.15894108E-3,.756E-5,0 BEESAT-1,2009-051C,2026-06-18T14:46:27.732864,14.61722485,.00043037,98.3962,77.1613,211.4953,148.5991,0,U,35933,999,88939,.13727878E-3,.635E-5,0 ITUPSAT1,2009-051E,2026-06-18T04:43:11.614080,14.60442029,.00062858,98.4047,75.9267,230.1057,129.9590,0,U,35935,999,88888,.13197175E-3,.591E-5,0 XIWANG-1 (HOPE-1),2009-072B,2026-06-18T14:41:05.243136,13.16439843,.0006898,100.4032,123.4218,227.8467,132.2061,0,U,36122,999,79319,.61772482E-3,.191E-5,0 O/OREOS (USA 219),2010-062C,2026-06-18T03:12:34.010208,14.93748266,.00125686,71.9713,78.1955,61.0005,299.2424,0,U,37224,999,11678,.17758614E-3,.1822E-4,0 JUGNU,2011-058B,2026-06-18T10:06:29.692800,14.13777082,.0018631,19.9617,300.9325,89.7521,308.6972,0,U,37839,999,75920,.68720079E-4,.399E-5,0 SRMSAT,2011-058D,2026-06-18T08:54:29.814624,14.11575778,.00117562,19.9726,52.3001,216.7081,303.9733,0,U,37841,999,75798,.48167787E-4,.354E-5,0 STRAND-1,2013-009E,2026-06-18T10:45:45.548640,14.37163853,.00077936,98.3922,349.6518,221.0490,139.0111,0,U,39090,999,69724,.80675814E-4,.197E-5,0 ZACUBE-1 (TSHEPISOSAT),2013-066B,2026-06-18T08:10:15.916800,15.01194004,.00409492,97.8077,131.6833,243.7163,115.9851,0,U,39417,999,68090,.18680558E-3,.2374E-4,0 GOMX-1,2013-066Q,2026-06-18T14:46:55.670304,14.69465758,.01301631,97.6475,9.9882,72.9901,288.5521,0,U,39430,999,67012,.26533468E-3,.174E-4,0 CUBEBUG-2 (LO-74),2013-066AA,2026-06-18T14:29:33.447840,14.93772226,.00583063,97.8910,118.5878,24.5043,335.8927,0,U,39440,999,67720,.37368529E-3,.4033E-4,0 FUNCUBE-1 (AO-73),2013-066AE,2026-06-18T09:10:33.179808,15.09501889,.00357367,97.8280,140.8531,196.6039,163.4022,0,U,39444,999,67984,.3027358E-3,.4855E-4,0 UWE-3,2013-066AG,2026-06-18T14:51:46.986912,14.97034048,.0047372,97.8699,125.7026,316.3669,43.3811,0,U,39446,999,67779,.31072148E-3,.3597E-4,0 UNISAT-6,2014-033C,2026-06-18T09:51:28.370592,14.88251057,.00461998,97.7883,322.1007,65.3888,295.2132,0,U,40012,999,64634,.21275283E-3,.1947E-4,0 DUCHIFAT-1,2014-033M,2026-06-18T10:17:11.174784,15.64804181,.00028843,98.0449,228.7634,114.5006,245.6553,0,U,40021,999,65594,.88744814E-3,.87001E-3,0 QB50P1,2014-033R,2026-06-18T14:24:00.295488,15.18277268,.00079826,98.0962,180.8451,209.9659,150.1117,0,U,40025,999,65324,.30543944E-3,.6188E-4,0 LILACSAT-2,2015-049K,2026-06-18T15:02:27.654144,15.51483884,.00056127,97.4639,206.5232,238.1269,121.9437,0,U,40908,999,59597,.22980935E-3,.13486E-3,0 FOX-1A (AO-85),2015-058D,2026-06-18T13:26:15.527616,14.90974956,.01305383,64.7759,274.7182,56.0558,305.2883,0,U,40967,999,11377,.17228667E-3,.1828E-4,0 CAS-2T & KS-1Q,2016-066G,2026-06-18T11:41:44.254464,14.44698252,.03428289,98.3822,245.2088,125.5473,237.8197,0,U,41847,999,50498,.20119143E-3,.1386E-4,0 RADFXSAT (FOX-1B),2017-073E,2026-06-17T14:31:00.659136,15.12722439,.0149538,97.4696,35.8108,327.7970,31.4193,0,U,43017,999,46545,.24962E-3,.5679E-4,0 DIWATA-2B,2018-084H,2026-06-18T13:41:15.387072,15.00457122,.00125861,98.1179,5.8380,165.7136,194.4445,0,U,43678,999,41642,.14823286E-3,.1802E-4,0 ES'HAIL 2,2018-090A,2026-06-18T13:02:45.310272,1.00271405,.00016858,0.0163,25.5312,98.6204,4.0957,0,U,43700,999,2769,0,.138E-5,0 FOX-1CLIFF (AO-95),2018-099N,2026-06-18T03:01:57.284544,15.26728638,.00078742,97.4378,229.3690,354.3313,5.7835,0,U,43770,999,41336,.35966179E-3,.939E-4,0 ITASAT,2018-099AE,2026-06-18T09:43:10.752384,15.19069917,.00119614,97.4024,220.8924,356.0419,4.0719,0,U,43786,999,41309,.25057988E-3,.5196E-4,0 JY1SAT (JO-97),2018-099AX,2026-06-18T03:21:08.262144,15.33679040,.00043897,97.4123,231.9773,257.5077,102.5675,0,U,43803,999,41377,.43793924E-3,.14196E-3,0 UWE-4,2018-111E,2026-06-18T06:00:53.776224,15.46181512,.00053009,97.5854,97.6902,337.5186,22.5830,0,U,43880,999,41094,.50222648E-3,.24613E-3,0 TIANYAN 01,2019-093C,2026-06-18T14:13:50.118816,14.86519996,.00150848,97.7533,241.7907,82.5676,277.7253,0,U,44881,999,35162,.20988056E-4,.133E-5,0 RS-44 & BREEZE-KM R/B,2019-096E,2026-06-18T11:46:31.341792,12.79748854,.02182209,82.5219,338.8385,141.1281,220.5745,0,U,44909,999,30251,-.22182571E-4,.7E-7,0 SALSAT,2020-068K,2026-06-18T10:53:20.067072,15.29814902,.00079869,97.8850,172.5955,302.8690,57.1780,0,U,46495,999,31555,.21400854E-3,.61E-4,0 XW-3 (CAS-9),2021-131B,2026-06-18T13:57:50.355648,14.41358512,.00053975,98.4988,261.9641,93.8677,266.3130,0,U,50466,999,23531,.11077129E-3,.315E-5,0 GREENCUBE (IO-117),2022-080E,2026-06-18T10:18:19.245024,6.42583246,.00089041,70.1442,297.8130,289.4279,70.5418,0,U,53109,999,9214,0,-.3E-7,0 UMKA 1 (RS40S),2023-091G,2026-06-18T14:34:24.049920,15.20832074,.0014272,97.5047,228.2990,113.2428,247.0311,0,U,57172,999,16422,.21882514E-3,.477E-4,0 CUBESX-HSE 3 (RS42S),2023-091N,2026-06-18T14:40:35.512032,15.31243946,.00119915,97.5087,235.2167,90.5232,269.7383,0,U,57178,999,16464,.33878944E-3,.1017E-3,0 MONITOR-3 (RS58S),2023-091Q,2026-06-18T13:46:04.497024,15.27865205,.00130848,97.5079,233.0298,96.5438,263.7291,0,U,57180,999,16450,.31815367E-3,.8602E-4,0 MONITOR-4 (RS57S),2023-091S,2026-06-18T14:50:06.602208,15.27951714,.00130757,97.5073,233.0461,96.8342,263.4385,0,U,57182,999,16451,.3140261E-3,.8511E-4,0 MONITOR-2 (RS39S),2023-091U,2026-06-18T13:32:42.526176,15.18921487,.00127571,97.5069,227.8385,106.9687,253.2946,0,U,57184,999,16416,.20016118E-3,.4118E-4,0 SVYATOBOR 1 (RS60S),2023-091X,2026-06-18T13:36:20.869344,15.26634878,.00108586,97.5085,233.3915,90.4659,269.7824,0,U,57187,999,16452,.26443284E-3,.6867E-4,0 VIZARD-METEO (RS38S),2023-091Z,2026-06-18T13:56:20.599008,15.36062932,.00081778,97.5088,239.0939,73.5994,286.6148,0,U,57189,999,16490,.37176139E-3,.12995E-3,0 POLYTECH-UNIVERSE 3 (RS46S),2023-091AB,2026-06-18T14:11:36.959136,15.19124144,.00169288,97.5044,227.3698,122.3343,237.9533,0,U,57191,999,16416,.19838834E-3,.4111E-4,0 UTMN 2 (RS27S),2023-091AP,2026-06-18T13:30:44.764704,15.32080352,.00091771,97.5084,236.8032,79.7033,280.5243,0,U,57203,999,16475,.3341164E-3,.10285E-3,0 KUZGTU 1 (RS47S),2023-091AV,2026-06-18T14:29:34.901088,15.29888680,.0012277,97.5060,234.0984,93.7490,266.5155,0,U,57217,999,16459,.32998218E-3,.9495E-4,0 SONATE-2,2024-043Q,2026-06-17T23:20:56.168448,15.58769943,.00070884,97.5538,319.4165,192.8072,167.3005,0,U,59112,999,12801,.43245733E-3,.33352E-3,0 MESAT1,2024-125G,2026-06-18T07:44:23.426304,15.63304730,.00096676,97.2281,26.8304,199.4839,160.6052,0,U,60209,999,10974,.50655202E-3,.46639E-3,0 OOV-CUBE (TUBSAT-30),2024-128F,2026-06-18T14:03:38.935584,15.02778204,.00444637,61.9932,220.6959,134.0792,226.3973,0,U,60240,999,10632,.11901618E-3,.1416E-4,0 COLIBRI-S (RS67S),2024-199M,2026-06-18T14:43:24.570048,15.47772862,.00062687,97.2988,43.4802,271.8056,88.2477,0,U,61746,999,13763,.32216421E-3,.16636E-3,0 HORS 3 (RS81S),2024-199U,2026-06-18T15:12:49.435200,15.55058704,.00037642,97.2970,45.5032,269.5308,90.5515,0,U,61753,999,13778,.46382906E-3,.31144E-3,0 HORS 4 (RS82S),2024-199V,2026-06-18T14:09:46.725696,15.59790654,.00032226,97.2914,46.6691,249.0083,111.0829,0,U,61754,999,13786,.48590109E-3,.38957E-3,0 SIT-2086,2024-199AF,2026-06-18T14:44:01.631328,15.53167742,.00047097,97.2926,45.9544,243.0648,117.0125,0,U,61764,999,13465,.47241569E-3,.29615E-3,0 HYPERVIEW 1G (RS66S),2024-199AP,2026-06-18T12:33:07.701120,15.76152791,.00040922,97.2864,49.3091,213.0172,147.0839,0,U,61772,999,13488,.76127735E-3,.119986E-2,0 ALTAIR (RS65S),2024-199AW,2026-06-18T14:37:29.167104,15.37040005,.00110075,97.3023,38.9506,305.4293,54.5923,0,U,61779,999,13733,.17635816E-3,.6321E-4,0 ASRTU-1 (AO-123),2024-199AY,2026-06-18T14:21:51.536160,15.35693092,.00121886,97.2994,38.2563,308.4675,51.5475,0,U,61781,999,13414,.18709174E-3,.6428E-4,0 SAMSAT-IONOSPHERE (RS75S),2024-199BB,2026-06-18T14:25:43.884768,15.57729874,.00059316,97.2937,45.5216,269.1650,90.8926,0,U,61784,999,13778,.4813576E-3,.35716E-3,0 RTU MIREA 1 (RS51S),2024-199BC,2026-06-18T14:56:21.417504,15.61216737,.00055629,97.2923,46.3825,259.9664,100.0966,0,U,61785,999,13469,.53477176E-3,.45341E-3,0 TEVEL2-4,2025-052D,2026-06-18T03:50:47.174208,15.34638877,.00048922,97.3899,65.5534,101.1057,259.0736,0,U,63213,999,7026,.416794E-3,.13925E-3,0 TEVEL2-5,2025-052E,2026-06-18T05:54:22.198464,15.34468179,.00048295,97.3896,65.5869,102.4501,257.7282,0,U,63214,999,7027,.43268963E-3,.14381E-3,0 TEVEL2-6,2025-052F,2026-06-18T10:53:52.882656,15.34437897,.00047522,97.3903,65.7795,102.8311,257.3463,0,U,63215,999,7030,.43456048E-3,.1443E-3,0 TEVEL2-1,2025-052H,2026-06-16T23:35:41.336448,15.33862790,.0004776,97.3878,63.9315,114.0246,246.1497,0,U,63217,999,7006,.46759393E-3,.15254E-3,0 TEVEL2-3,2025-052J,2026-06-18T05:12:47.301696,15.33951855,.00047835,97.3876,65.1876,111.6864,248.4889,0,U,63218,999,7025,.41717175E-3,.13636E-3,0 TEVEL2-2,2025-052K,2026-06-18T14:44:37.860576,15.33915374,.00047719,97.3876,65.5651,111.0401,249.1353,0,U,63219,999,7031,.41444408E-3,.13531E-3,0 TEVEL2-9,2025-052AD,2026-06-18T04:50:24.775296,15.31922489,.00078828,97.3936,64.5254,127.9534,232.2421,0,U,63237,999,7018,.40695732E-3,.12483E-3,0 TEVEL2-7,2025-052AE,2026-06-18T10:31:50.168640,15.31632638,.00079641,97.3937,64.6775,127.7486,232.4478,0,U,63238,999,7021,.40405631E-3,.12282E-3,0 TEVEL2-8,2025-052AF,2026-06-18T06:01:29.975232,15.31612333,.00079408,97.3939,64.4672,128.6934,231.5019,0,U,63239,999,7018,.41846124E-3,.12715E-3,0 INNOSAT 16 (RS92S7),2025-155C,2026-06-18T13:49:56.512128,15.25468327,.00107197,97.4567,136.6996,170.6194,189.5246,0,U,64878,999,8088,.1822443E-3,.4545E-4,0 GEOSCAN 6 (RS92S6),2025-155D,2026-06-18T14:53:09.938688,15.30173529,.00085365,97.4561,138.1775,157.8347,202.3264,0,U,64879,999,8098,.26949911E-3,.7799E-4,0 GEOSCAN 1 (RS92S1),2025-155E,2026-06-18T14:55:53.379840,15.30770094,.00084643,97.4557,138.3287,157.5174,202.6439,0,U,64880,999,8099,.28090309E-3,.8285E-4,0 239ALFEROV (RS61S),2025-155F,2026-06-18T14:09:13.189536,15.32970429,.00082112,97.4558,138.8623,154.6965,205.4680,0,U,64881,999,8102,.36427984E-3,.11538E-3,0 GEOSCAN 2 (RS92S2),2025-155Q,2026-06-18T14:46:25.773312,15.31041787,.00082579,97.4557,138.4753,145.1673,215.0110,0,U,64890,999,8100,.28993569E-3,.8626E-4,0 GEOSCAN 5 (RS92S5),2025-155R,2026-06-18T13:52:59.838240,15.33287666,.00069491,97.4551,138.9889,158.2767,201.8772,0,U,64891,999,8103,.34954079E-3,.11175E-3,0 GEOSCAN 4 (RS92S4),2025-155S,2026-06-18T13:30:01.951776,15.33441890,.00070068,97.4554,139.0218,157.9314,202.2231,0,U,64892,999,8103,.32878859E-3,.10558E-3,0 GEOSCAN 3 (RS92S3),2025-155T,2026-06-18T13:28:33.504096,15.35434361,.00069588,97.4543,139.4544,156.2579,203.8987,0,U,64893,999,8106,.40683E-3,.13943E-3,0 INNOSAT 3 (RS92S0),2025-155U,2026-06-18T14:36:50.317344,15.43910415,.00068004,97.4490,141.1389,147.6902,212.4763,0,U,64894,999,8118,.67491361E-3,.30683E-3,0 KNACKSAT-2,1998-067XZ,2026-06-17T14:33:42.297120,15.60014370,.0009088,51.6314,292.3670,217.1010,142.9356,0,U,67683,999,2034,.49993E-3,.40994E-3,0